Wind_Speed
55 55 58 59 60 58 62 63 66 69 71 76 80 90 91 88 88 90 87 83 83 86 91 96 100 108 113 119 90 73 71 72 72 60 67 71 82 86 87 93 105 105 105
57 59 59 59 60 62 65 66 69 70 74 77 82 89 91 91 91 91 84 83 85 90 94 100 106 110 116 87 73 74 74 70 68 57 56 61 68 73 76 88 101 104 104
59 60 61 62 60 60 61 65 69 72 77 79 85 88 92 89 89 90 86 86 91 93 96 102 109 112 93 68 70 68 63 58 53 52 51 58 62 67 76 84 98 102 104
61 61 61 60 60 61 66 69 74 74 77 81 87 89 88 88 87 89 90 90 93 94 97 106 108 97 69 63 53 49 43 41 42 49 52 58 60 60 68 79 99 102 104
62 60 61 59 59 63 66 71 75 80 82 84 86 85 85 85 85 88 91 90 94 93 98 105 96 76 61 49 36 33 32 34 38 45 49 58 55 56 59 72 92 101 100
57 59 56 57 65 67 71 76 79 80 82 83 84 83 81 81 85 89 90 92 92 93 98 99 70 62 53 41 39 33 27 29 34 42 43 49 53 54 57 70 84 92 97
57 56 61 68 69 71 76 79 77 79 81 82 83 82 82 84 86 88 90 91 91 94 101 77 58 48 44 42 41 40 40 36 39 43 41 46 53 55 58 68 84 97 91
61 63 64 68 71 74 74 73 75 78 81 81 82 81 81 85 86 89 90 88 90 96 94 65 52 48 49 49 49 53 54 51 51 53 53 49 57 61 63 68 92 95 87
64 67 67 68 71 70 72 71 73 75 77 79 79 79 83 86 88 91 89 88 94 97 82 61 50 50 53 54 57 56 55 58 56 58 57 54 60 68 65 73 96 91 92
70 65 65 67 69 68 69 67 69 74 75 76 78 80 84 85 88 87 88 92 96 90 71 53 52 53 53 55 53 54 47 48 52 55 62 61 59 68 70 91 110 75 82
69 65 66 64 63 69 67 66 68 70 73 74 75 80 84 85 86 85 89 95 95 76 64 50 51 57 53 46 47 44 39 42 46 52 56 61 63 70 76 100 83 86 89
70 67 66 65 64 67 68 69 70 69 71 71 74 77 82 82 82 83 89 93 77 68 57 49 48 48 48 47 44 40 35 38 44 52 55 59 68 75 86 108 98 100 81
69 66 67 68 62 66 67 69 71 69 69 71 74 76 81 80 79 83 87 87 63 61 50 45 48 48 40 34 29 27 30 34 37 44 56 63 72 72 84 105 95 77 89
69 64 67 72 59 63 68 69 68 67 70 71 73 75 77 77 77 82 85 79 56 53 42 43 42 33 29 20 17 19 22 28 33 39 57 65 72 73 98 93 93 83 83
73 70 70 66 63 66 65 64 66 66 67 69 70 72 72 72 76 81 85 66 47 45 38 40 33 25 21 15 14 15 18 23 29 35 55 65 71 72 98 90 89 82 85
69 62 56 57 62 64 61 60 62 63 64 65 68 68 70 74 78 81 80 52 44 36 35 35 27 20 18 13 13 14 14 19 24 32 53 66 68 77 97 86 87 92 93
60 60 66 61 58 56 55 54 55 57 56 58 59 63 71 75 79 79 72 45 42 30 29 31 25 17 12 12 13 14 17 16 26 31 43 56 72 95 110 74 85 84 81
62 57 64 60 53 51 52 49 46 47 52 57 61 66 71 76 78 73 55 41 39 40 32 27 24 14 10 7 11 15 18 26 32 35 42 57 75 88 94 74 84 89 87
61 53 58 51 48 46 43 41 39 44 51 57 62 69 74 71 72 57 44 40 36 35 27 24 21 16 11 10 7 8 13 27 34 39 40 54 74 91 86 72 81 88 86
60 57 51 46 44 37 33 35 40 45 51 56 64 66 69 67 60 43 38 38 33 32 25 20 18 16 15 13 8 5 10 19 32 36 43 57 83 93 75 68 81 86 81
57 48 43 40 30 29 32 36 39 46 51 60 62 62 68 62 51 36 33 34 29 28 23 19 16 15 16 14 10 5 14 29 36 38 42 56 83 85 69 62 70 73 71
44 42 38 29 27 29 31 34 39 48 55 55 58 65 65 55 44 34 30 33 29 27 22 17 15 14 16 17 14 6 14 28 38 39 47 53 66 77 64 71 77 74 72
39 36 26 27 27 27 33 36 43 48 52 55 59 64 57 50 42 32 28 29 28 26 24 17 15 13 14 18 17 13 8 17 33 36 43 54 77 72 71 78 81 76 72
38 28 26 22 25 30 34 36 42 48 51 55 58 56 50 48 41 33 28 27 27 24 23 19 15 13 14 16 18 18 15 12 20 36 43 58 75 71 65 73 71 73 78
31 24 19 22 27 30 31 38 44 47 49 54 54 50 50 49 41 32 27 26 25 23 20 19 16 13 13 14 18 20 20 16 20 31 43 51 59 62 67 71 69 68 66
22 17 21 25 26 30 36 41 43 46 48 52 49 50 53 47 37 31 27 25 24 23 21 17 17 13 12 14 16 21 22 21 22 27 42 47 52 58 64 68 66 69 67
Wind_Direction
281 284 285 280 279 281 283 285 288 291 293 295 298 295 298 300 304 305 304 301 300 301 302 303 304 304 304 302 295 288 284 282 275 254 241 238 236 236 233 224 222 221 219
282 286 281 279 280 282 286 288 291 291 295 298 297 298 299 301 304 304 303 299 300 303 306 306 306 307 307 299 292 289 284 277 270 252 233 228 228 228 225 217 212 214 216
283 281 275 276 284 287 289 293 293 295 296 297 297 298 300 302 306 305 306 303 302 305 307 308 309 308 306 294 294 287 282 272 263 243 219 217 216 220 223 212 206 208 212
280 276 274 280 286 291 293 294 296 297 296 296 298 300 303 305 307 307 306 306 305 307 309 310 310 308 300 295 290 289 279 268 252 232 212 209 212 215 221 213 206 203 207
279 277 277 286 294 295 297 297 298 297 296 297 300 303 305 307 307 306 308 308 308 309 311 312 310 300 294 287 283 289 280 265 243 228 212 209 208 214 221 214 208 201 203
273 275 284 291 299 297 295 296 294 295 297 300 302 305 305 306 307 306 307 310 311 311 316 314 299 294 287 274 270 277 283 260 238 227 220 217 216 218 221 214 204 199 198
275 288 296 297 293 293 292 293 295 297 299 302 304 305 306 308 309 309 311 312 314 315 318 312 293 284 281 275 270 267 268 263 248 236 227 223 216 218 220 213 201 195 192
277 295 296 293 292 293 294 296 297 298 301 304 306 307 308 311 311 312 313 315 316 321 319 306 292 276 281 281 283 273 260 254 256 240 234 227 221 213 218 210 193 187 192
289 290 290 288 292 293 294 296 299 301 302 303 305 307 310 311 311 313 314 317 321 323 321 300 287 279 277 282 278 280 266 254 253 237 229 225 223 210 215 202 189 185 189
283 287 286 288 289 292 296 296 300 301 302 303 306 309 310 312 314 314 318 318 323 323 318 299 294 288 286 289 280 279 269 249 246 232 226 225 218 209 208 189 187 189 185
282 285 285 288 290 292 295 298 300 301 301 304 307 310 312 313 313 317 320 324 325 319 316 299 297 295 292 289 282 274 266 248 235 224 221 214 209 206 201 187 186 185 188
284 282 283 287 291 293 296 299 299 299 300 304 307 310 311 312 314 318 323 328 322 313 313 305 306 301 296 288 280 270 254 244 237 226 218 208 204 201 195 186 188 185 181
285 285 283 284 285 292 295 298 296 297 301 305 308 311 312 313 317 321 326 330 316 314 313 317 316 313 302 293 276 250 247 244 232 225 211 205 199 201 203 190 186 193 180
279 283 279 278 288 293 290 290 294 298 302 305 308 309 311 313 318 323 329 333 314 314 319 318 321 317 311 291 260 251 245 240 234 222 204 203 199 199 203 196 189 188 179
276 281 287 288 285 289 289 293 296 301 303 304 305 308 313 317 322 328 335 331 317 315 319 318 322 316 312 289 258 244 237 236 232 217 201 198 196 202 199 188 190 183 184
284 288 287 289 289 289 290 295 298 299 299 302 306 313 316 322 329 334 336 326 322 320 314 315 321 313 311 286 266 257 242 227 218 208 197 194 199 204 189 184 183 184 187
288 290 283 283 284 286 290 292 293 295 299 304 314 317 321 328 333 335 335 322 320 318 313 314 318 308 299 287 272 264 251 227 209 200 199 199 204 195 186 187 180 179 183
281 289 287 282 283 287 291 289 290 299 305 314 319 322 325 331 334 335 327 317 323 325 317 312 310 302 291 280 279 263 233 221 206 198 200 200 206 198 189 190 178 180 187
277 291 283 279 280 281 282 285 296 300 306 314 319 323 330 335 336 328 319 318 318 319 312 310 300 294 281 263 259 224 204 216 218 210 213 207 207 190 189 185 179 182 182
272 275 273 275 275 276 283 291 295 302 310 314 319 329 332 337 333 318 314 314 310 318 314 307 292 284 283 277 283 205 172 205 201 196 200 206 200 189 192 183 181 185 185
271 269 268 264 268 277 284 291 301 309 314 321 328 335 337 338 333 316 310 317 305 320 315 306 289 273 271 270 262 194 187 205 192 188 196 201 201 192 194 190 186 187 190
265 265 262 265 271 277 288 299 309 315 322 328 332 337 339 335 329 316 310 320 307 315 321 305 286 268 260 254 241 222 173 208 199 189 192 196 204 195 196 185 184 184 187
257 252 255 261 269 284 297 309 317 324 327 330 333 337 338 334 326 314 311 317 317 307 325 316 298 272 252 247 239 237 204 192 206 190 185 194 192 196 189 184 187 194 198
253 247 253 267 285 296 305 315 322 326 327 329 333 336 336 334 328 314 311 315 322 305 317 325 305 280 262 240 236 233 243 206 206 197 184 194 200 198 200 193 200 202 203
243 249 266 282 293 302 312 319 324 324 324 328 331 331 335 332 324 315 311 319 319 318 306 323 317 302 265 252 232 228 230 236 207 210 189 191 199 208 210 208 206 205 203
244 265 277 286 294 305 313 317 316 321 324 325 329 331 333 330 320 316 311 313 321 321 316 306 320 311 286 250 237 228 220 229 217 212 208 197 200 202 202 201 201 204 204
Height
5616 5612 5607 5603 5599 5594 5589 5583 5576 5569 5561 5553 5544 5534 5523 5512 5501 5491 5479 5470 5458 5447 5431 5419 5409 5388 5367 5342 5322 5312 5304 5296 5287 5301 5309 5323 5333 5348 5364 5383 5407 5430 5457
5600 5597 5591 5587 5583 5578 5572 5565 5559 5551 5543 5534 5525 5514 5504 5493 5482 5468 5456 5446 5436 5424 5410 5391 5376 5355 5334 5311 5298 5291 5283 5278 5271 5273 5286 5297 5309 5322 5336 5352 5377 5407 5434
5584 5580 5574 5570 5566 5560 5554 5547 5541 5533 5524 5515 5506 5494 5484 5473 5462 5448 5437 5427 5413 5401 5386 5368 5347 5323 5304 5290 5279 5268 5260 5257 5257 5257 5271 5281 5295 5306 5313 5332 5356 5383 5410
5568 5563 5559 5555 5551 5544 5539 5531 5523 5514 5505 5495 5485 5476 5466 5456 5443 5431 5418 5407 5393 5379 5362 5341 5318 5295 5282 5273 5264 5255 5249 5247 5247 5249 5260 5272 5282 5292 5301 5314 5334 5364 5391
5552 5547 5543 5538 5534 5527 5519 5512 5503 5496 5486 5476 5467 5458 5447 5436 5424 5410 5397 5386 5372 5359 5339 5315 5292 5275 5268 5260 5255 5248 5244 5243 5244 5248 5256 5264 5276 5285 5294 5306 5325 5349 5377
5534 5530 5526 5521 5515 5508 5501 5492 5484 5477 5468 5458 5450 5440 5426 5414 5401 5387 5374 5364 5350 5336 5318 5293 5270 5261 5255 5250 5247 5244 5242 5242 5245 5249 5255 5263 5273 5280 5284 5297 5317 5342 5368
5517 5514 5509 5504 5498 5490 5482 5474 5467 5460 5451 5441 5431 5420 5407 5394 5381 5366 5352 5340 5327 5311 5289 5268 5255 5248 5244 5239 5237 5234 5234 5236 5241 5245 5251 5258 5264 5273 5277 5288 5308 5332 5360
5501 5498 5491 5486 5479 5472 5466 5458 5451 5442 5434 5423 5412 5401 5391 5377 5361 5346 5331 5316 5303 5287 5263 5246 5239 5235 5230 5226 5224 5222 5221 5223 5226 5232 5239 5246 5254 5261 5267 5279 5299 5322 5347
5483 5478 5472 5466 5460 5453 5448 5441 5433 5423 5416 5407 5396 5385 5373 5358 5342 5327 5312 5297 5282 5265 5244 5229 5223 5219 5213 5206 5203 5201 5200 5204 5205 5211 5220 5230 5237 5246 5257 5270 5293 5318 5338
5464 5459 5452 5446 5442 5436 5428 5420 5413 5405 5398 5390 5379 5369 5354 5343 5325 5309 5293 5277 5262 5242 5227 5215 5206 5200 5194 5189 5182 5178 5178 5183 5184 5191 5202 5214 5223 5235 5246 5261 5283 5303 5326
5445 5439 5434 5429 5424 5419 5411 5400 5392 5385 5379 5372 5363 5351 5336 5325 5311 5295 5277 5256 5233 5218 5208 5199 5191 5181 5174 5170 5165 5162 5164 5165 5169 5176 5186 5198 5212 5226 5239 5258 5276 5298 5322
5427 5422 5416 5411 5405 5401 5394 5386 5376 5368 5362 5356 5347 5336 5321 5310 5295 5281 5263 5238 5216 5202 5195 5185 5176 5166 5158 5153 5149 5147 5149 5151 5157 5164 5175 5189 5206 5219 5235 5252 5269 5292 5307
5409 5405 5400 5394 5389 5384 5378 5370 5361 5353 5347 5340 5330 5321 5308 5294 5282 5266 5250 5227 5207 5193 5183 5172 5163 5152 5142 5137 5135 5136 5139 5141 5146 5155 5168 5183 5200 5215 5225 5238 5261 5282 5296
5391 5387 5381 5376 5371 5368 5362 5353 5344 5338 5331 5324 5315 5304 5296 5281 5269 5253 5238 5218 5201 5186 5175 5166 5157 5146 5138 5133 5133 5133 5135 5137 5141 5146 5158 5172 5188 5203 5215 5235 5260 5277 5289
5373 5368 5364 5359 5354 5350 5345 5338 5331 5324 5318 5310 5300 5290 5283 5270 5254 5236 5219 5204 5191 5178 5170 5162 5154 5146 5138 5135 5133 5133 5135 5135 5137 5141 5151 5166 5183 5197 5215 5234 5252 5266 5282
5355 5351 5346 5340 5336 5333 5329 5323 5316 5310 5302 5294 5284 5276 5266 5252 5238 5222 5207 5193 5181 5173 5166 5159 5151 5144 5139 5135 5134 5134 5135 5135 5136 5142 5150 5163 5179 5192 5214 5231 5246 5263 5282
5338 5334 5329 5323 5319 5316 5311 5306 5302 5296 5289 5282 5273 5263 5253 5238 5224 5210 5195 5182 5174 5169 5162 5154 5149 5144 5140 5136 5135 5135 5136 5137 5138 5144 5153 5166 5177 5191 5213 5227 5242 5257 5276
5319 5316 5313 5307 5303 5301 5298 5293 5287 5282 5276 5269 5260 5251 5240 5225 5211 5199 5185 5175 5168 5162 5156 5151 5147 5143 5140 5138 5137 5135 5134 5136 5141 5146 5156 5168 5178 5194 5213 5226 5240 5256 5275
5301 5298 5295 5292 5289 5287 5284 5282 5278 5273 5267 5258 5248 5238 5224 5211 5199 5188 5177 5169 5162 5158 5152 5147 5144 5142 5140 5139 5137 5136 5134 5135 5140 5148 5157 5166 5178 5196 5213 5224 5237 5255 5272
5282 5280 5278 5277 5276 5274 5273 5271 5266 5262 5256 5250 5242 5229 5216 5203 5190 5178 5170 5164 5157 5152 5147 5144 5141 5139 5138 5138 5136 5136 5134 5136 5139 5146 5155 5165 5180 5195 5211 5222 5237 5254 5270
5266 5265 5264 5263 5262 5262 5261 5258 5255 5250 5244 5238 5227 5216 5205 5193 5182 5172 5165 5159 5154 5149 5143 5140 5138 5137 5136 5137 5137 5137 5138 5141 5143 5148 5154 5165 5180 5196 5209 5220 5234 5251 5267
5252 5253 5252 5252 5252 5252 5250 5248 5243 5239 5233 5224 5214 5204 5194 5183 5172 5164 5159 5153 5148 5144 5139 5135 5134 5133 5133 5134 5137 5138 5140 5145 5149 5155 5163 5172 5182 5195 5206 5217 5231 5245 5260
5240 5241 5240 5241 5242 5241 5241 5236 5233 5228 5221 5212 5202 5193 5185 5175 5165 5158 5152 5148 5143 5139 5135 5131 5130 5130 5130 5131 5133 5136 5139 5142 5146 5151 5160 5167 5178 5191 5201 5215 5230 5242 5253
5231 5230 5231 5233 5233 5232 5229 5226 5222 5217 5210 5201 5193 5186 5178 5169 5160 5154 5148 5143 5138 5135 5132 5127 5125 5125 5126 5127 5129 5132 5135 5139 5142 5148 5155 5166 5178 5189 5200 5212 5226 5237 5248
5221 5222 5223 5224 5224 5221 5218 5215 5211 5207 5199 5192 5185 5179 5171 5164 5156 5149 5145 5139 5135 5130 5127 5124 5122 5120 5122 5122 5125 5128 5131 5134 5139 5144 5152 5164 5177 5186 5197 5208 5219 5230 5240
5212 5214 5215 5214 5212 5210 5208 5204 5201 5195 5188 5183 5176 5169 5163 5157 5150 5144 5140 5136 5132 5128 5124 5121 5119 5117 5117 5119 5120 5124 5128 5131 5136 5143 5153 5162 5172 5181 5190 5201 5209 5220 5230